Flag for Trinidad and Tobago Weather past 2 weeks in San Fernando, Trinidad and Tobago

Now
73 °F

Passing clouds.


Feels Like: 70 °F
Forecast: 74 / 85 °F
Wind: No wind

Location: Piarco International Airport - Trinidad

Current Time: Feb 1, 2015 at 4:16:40 AM

Latest Report: Feb 1, 2015 at 3:00 AM


Visibility: N/A

Pressure: 29.92 "Hg

Humidity: 94%

Dew point: 72 °F

Location of San FernandoLocation

Historic Weather in San Fernando — Graph

°F

San Fernando temperature yesterday

Maximum temperature yesterday: 88 °F (at 12:00 PM)
Minimum temperature yesterday: 73 °F (at 5:00 AM)
Average temperature yesterday: 80 °F

Past Weeks' High & Low Weather Summary

 TemperatureHumidityPressure
High90 °F (Jan 18, 1:00 PM)100% (Jan 24, 5:00 AM)30.01 "Hg (Jan 24, 5:00 AM)
Low70 °F (Jan 24, 5:00 AM)46% (Jan 28, 12:00 PM)29.86 "Hg (Jan 19, 3:00 PM)
Average79 °F78%29.93 "Hg
* Reported Jan 17 3:00 AM — Feb 1 3:00 AM, San Fernando, Weather by CustomWeather, © 2014

Note: Actual official high and low records may vary slightly from our data, if they occured in-between our weather recording intervals... More about our weather records

Advertising

San Fernando weather history for previous 24 hours

 ConditionsComfort  
Time TempWeatherWind HumidityBarometerVisibility
3:00 AM
Feb 1
73 °FPassing clouds.No wind94%29.92 "HgN/A
2:00 AM73 °FPassing clouds.No wind94%29.92 "HgN/A
1:00 AM75 °FClear.No wind89%29.95 "Hg10 mi
12:00 AM75 °FClear.No wind89%29.95 "Hg10 mi
11:00 PM
Jan 31
75 °FPassing clouds.No wind94%29.98 "HgN/A
10:00 PM77 °FPassing clouds.No wind89%29.98 "HgN/A
9:00 PM77 °FPassing clouds.No wind89%29.95 "HgN/A
8:00 PM79 °FPassing clouds.No wind79%29.92 "HgN/A
7:00 PM79 °FPassing clouds.6 mph79%29.92 "HgN/A
6:00 PM81 °FPassing clouds.10 mph74%29.89 "HgN/A
5:00 PM86 °FPassing clouds.13 mph59%29.89 "HgN/A
4:00 PM86 °FPassing clouds.13 mph59%29.89 "HgN/A
3:00 PMN/AScattered clouds.13 mphN/AN/AN/A
2:00 PM88 °FScattered clouds.17 mph55%29.92 "HgN/A
1:00 PM88 °FScattered clouds.15 mph59%29.92 "HgN/A
12:00 PM88 °FScattered clouds.16 mph59%29.95 "HgN/A
11:00 AM86 °FScattered clouds.14 mph66%29.98 "HgN/A
10:00 AM84 °FPartly sunny.12 mph66%29.98 "HgN/A
9:00 AM84 °FPassing clouds.14 mph70%29.98 "HgN/A
8:00 AM81 °FScattered clouds.No wind79%29.95 "HgN/A
7:00 AM75 °FScattered clouds.No wind89%29.92 "HgN/A
6:00 AM73 °FPassing clouds.No wind94%29.92 "HgN/A
5:00 AM73 °FPassing clouds.No wind94%29.89 "HgN/A
4:00 AM75 °FPassing clouds.No wind89%29.89 "HgN/A
Weather by CustomWeather, © 2014

See weather overviewHow to use our weather pages